Year,Month,Day,Hour,Minute,Value (Times are PST for temperature in C)
2005,09,26,00,00,9.40
2005,09,26,00,01,9.40
2005,09,26,00,02,9.40
2005,09,26,00,03,9.40
2005,09,26,00,04,9.40
2005,09,26,00,05,9.40
2005,09,26,00,06,9.30
2005,09,26,00,07,9.30
2005,09,26,00,08,9.30
2005,09,26,00,09,9.30
2005,09,26,00,10,9.30
2005,09,26,00,11,9.30
2005,09,26,00,12,9.30
2005,09,26,00,13,9.30
2005,09,26,00,14,9.20
2005,09,26,00,15,9.20
2005,09,26,00,16,9.20
2005,09,26,00,17,9.20
2005,09,26,00,18,9.20
2005,09,26,00,19,9.20
2005,09,26,00,20,9.20
2005,09,26,00,21,9.20
2005,09,26,00,22,9.20
2005,09,26,00,23,9.20
2005,09,26,00,24,9.10
2005,09,26,00,25,9.10
2005,09,26,00,26,9.10
2005,09,26,00,27,9.10
2005,09,26,00,28,9.10
2005,09,26,00,29,9.00
2005,09,26,00,30,9.00
2005,09,26,00,31,9.00
2005,09,26,00,32,9.00
2005,09,26,00,33,8.90
2005,09,26,00,34,8.90
2005,09,26,00,35,8.90
2005,09,26,00,36,8.90
2005,09,26,00,37,8.80
2005,09,26,00,38,8.80
2005,09,26,00,39,8.80
2005,09,26,00,40,8.70
2005,09,26,00,41,8.70
2005,09,26,00,42,8.70
2005,09,26,00,43,8.70
2005,09,26,00,44,8.70
2005,09,26,00,45,8.70
2005,09,26,00,46,8.70
2005,09,26,00,47,8.70
2005,09,26,00,48,8.60
2005,09,26,00,49,8.60
2005,09,26,00,50,8.60
2005,09,26,00,51,8.50
2005,09,26,00,52,8.50
2005,09,26,00,53,8.50
2005,09,26,00,54,8.50
2005,09,26,00,55,8.40
2005,09,26,00,56,8.40
2005,09,26,00,57,8.40
2005,09,26,00,58,8.40
2005,09,26,00,59,8.40
2005,09,26,01,00,8.30
2005,09,26,01,01,8.30
2005,09,26,01,02,8.30
2005,09,26,01,03,8.30
2005,09,26,01,04,8.30
2005,09,26,01,05,8.30
2005,09,26,01,06,8.30
2005,09,26,01,07,8.30
2005,09,26,01,08,8.20
2005,09,26,01,09,8.20
2005,09,26,01,10,8.20
2005,09,26,01,11,8.20
2005,09,26,01,12,8.20
2005,09,26,01,13,8.20
2005,09,26,01,14,8.20
2005,09,26,01,15,8.20
2005,09,26,01,16,8.20
2005,09,26,01,17,8.20
2005,09,26,01,18,8.20
2005,09,26,01,19,8.20
2005,09,26,01,20,8.20
2005,09,26,01,21,8.20
2005,09,26,01,22,8.20
2005,09,26,01,23,8.20
2005,09,26,01,24,8.20
2005,09,26,01,25,8.30
2005,09,26,01,26,8.40
2005,09,26,01,27,8.40
2005,09,26,01,28,8.50
2005,09,26,01,29,8.50
2005,09,26,01,30,8.50
2005,09,26,01,31,8.60
2005,09,26,01,32,8.60
2005,09,26,01,33,8.60
2005,09,26,01,34,8.60
2005,09,26,01,35,8.60
2005,09,26,01,36,8.60
2005,09,26,01,37,8.50
2005,09,26,01,38,8.50
2005,09,26,01,39,8.50
2005,09,26,01,40,8.50
2005,09,26,01,41,8.50
2005,09,26,01,42,8.50
2005,09,26,01,43,8.50
2005,09,26,01,44,8.50
2005,09,26,01,45,8.50
2005,09,26,01,46,8.40
2005,09,26,01,47,8.40
2005,09,26,01,48,8.40
2005,09,26,01,49,8.40
2005,09,26,01,50,8.40
2005,09,26,01,51,8.40
2005,09,26,01,52,8.40
2005,09,26,01,53,8.40
2005,09,26,01,54,8.40
2005,09,26,01,55,8.40
2005,09,26,01,56,8.40
2005,09,26,01,57,8.40
2005,09,26,01,58,8.40
2005,09,26,01,59,8.40
2005,09,26,02,00,8.30
2005,09,26,02,01,8.30
2005,09,26,02,02,8.30
2005,09,26,02,03,8.30
2005,09,26,02,04,8.30
2005,09,26,02,05,8.30
2005,09,26,02,06,8.20
2005,09,26,02,07,8.20
2005,09,26,02,08,8.20
2005,09,26,02,09,8.20
2005,09,26,02,10,8.20
2005,09,26,02,11,8.20
2005,09,26,02,12,8.20
2005,09,26,02,13,8.20
2005,09,26,02,14,8.20
2005,09,26,02,15,8.20
2005,09,26,02,16,8.20
2005,09,26,02,17,8.10
2005,09,26,02,18,8.10
2005,09,26,02,19,8.10
2005,09,26,02,20,8.10
2005,09,26,02,21,8.10
2005,09,26,02,22,8.10
2005,09,26,02,23,8.10
2005,09,26,02,24,8.10
2005,09,26,02,25,8.00
2005,09,26,02,26,8.00
2005,09,26,02,27,8.00
2005,09,26,02,28,8.00
2005,09,26,02,29,8.00
2005,09,26,02,30,8.00
2005,09,26,02,31,8.00
2005,09,26,02,32,7.90
2005,09,26,02,33,7.90
2005,09,26,02,34,7.90
2005,09,26,02,35,7.90
2005,09,26,02,36,7.90
2005,09,26,02,37,7.90
2005,09,26,02,38,7.90
2005,09,26,02,39,7.90
2005,09,26,02,40,8.00
2005,09,26,02,41,8.00
2005,09,26,02,42,8.00
2005,09,26,02,43,7.90
2005,09,26,02,44,7.90
2005,09,26,02,45,7.90
2005,09,26,02,46,7.90
2005,09,26,02,47,7.80
2005,09,26,02,48,7.80
2005,09,26,02,49,7.80
2005,09,26,02,50,7.80
2005,09,26,02,51,7.80
2005,09,26,02,52,7.80
2005,09,26,02,53,7.80
2005,09,26,02,54,7.80
2005,09,26,02,55,7.80
2005,09,26,02,56,7.80
2005,09,26,02,57,7.90
2005,09,26,02,58,8.00
2005,09,26,02,59,8.10
2005,09,26,03,00,8.20
2005,09,26,03,01,8.20
2005,09,26,03,02,8.20
2005,09,26,03,03,8.20
2005,09,26,03,04,8.20
2005,09,26,03,05,8.20
2005,09,26,03,06,8.20
2005,09,26,03,07,8.20
2005,09,26,03,08,8.20
2005,09,26,03,09,8.20
2005,09,26,03,10,8.20
2005,09,26,03,11,8.20
2005,09,26,03,12,8.20
2005,09,26,03,13,8.20
2005,09,26,03,14,8.20
2005,09,26,03,15,8.30
2005,09,26,03,16,8.30
2005,09,26,03,17,8.20
2005,09,26,03,18,8.20
2005,09,26,03,19,8.20
2005,09,26,03,20,8.20
2005,09,26,03,21,8.10
2005,09,26,03,22,8.10
2005,09,26,03,23,8.00
2005,09,26,03,24,8.00
2005,09,26,03,25,8.00
2005,09,26,03,26,8.00
2005,09,26,03,27,8.00
2005,09,26,03,28,8.00
2005,09,26,03,29,8.00
2005,09,26,03,30,8.00
2005,09,26,03,31,8.00
2005,09,26,03,32,8.00
2005,09,26,03,33,8.00
2005,09,26,03,34,8.00
2005,09,26,03,35,7.90
2005,09,26,03,36,7.90
2005,09,26,03,37,7.90
2005,09,26,03,38,7.80
2005,09,26,03,39,7.80
2005,09,26,03,40,7.80
2005,09,26,03,41,7.80
2005,09,26,03,42,7.80
2005,09,26,03,43,7.80
2005,09,26,03,44,7.80
2005,09,26,03,45,7.80
2005,09,26,03,46,7.70
2005,09,26,03,47,7.70
2005,09,26,03,48,7.70
2005,09,26,03,49,7.70
2005,09,26,03,50,7.70
2005,09,26,03,51,7.70
2005,09,26,03,52,7.70
2005,09,26,03,53,7.70
2005,09,26,03,54,7.70
2005,09,26,03,55,7.70
2005,09,26,03,56,7.70
2005,09,26,03,57,7.60
2005,09,26,03,58,7.60
2005,09,26,03,59,7.60
2005,09,26,04,00,7.50
2005,09,26,04,01,7.50
2005,09,26,04,02,7.40
2005,09,26,04,03,7.40
2005,09,26,04,04,7.40
2005,09,26,04,05,7.30
2005,09,26,04,06,7.30
2005,09,26,04,07,7.30
2005,09,26,04,08,7.30
2005,09,26,04,09,7.30
2005,09,26,04,10,7.30
2005,09,26,04,11,7.30
2005,09,26,04,12,7.30
2005,09,26,04,13,7.30
2005,09,26,04,14,7.30
2005,09,26,04,15,7.30
2005,09,26,04,16,7.30
2005,09,26,04,17,7.20
2005,09,26,04,18,7.20
2005,09,26,04,19,7.20
2005,09,26,04,20,7.20
2005,09,26,04,21,7.10
2005,09,26,04,22,7.10
2005,09,26,04,23,7.10
2005,09,26,04,24,7.10
2005,09,26,04,25,7.10
2005,09,26,04,26,7.00
2005,09,26,04,27,7.00
2005,09,26,04,28,7.00
2005,09,26,04,29,7.00
2005,09,26,04,30,7.00
2005,09,26,04,31,6.90
2005,09,26,04,32,6.90
2005,09,26,04,33,6.90
2005,09,26,04,34,6.90
2005,09,26,04,35,6.90
2005,09,26,04,36,6.80
2005,09,26,04,37,6.80
2005,09,26,04,38,6.80
2005,09,26,04,39,6.80
2005,09,26,04,40,6.80
2005,09,26,04,41,6.80
2005,09,26,04,42,6.80
2005,09,26,04,43,6.80
2005,09,26,04,44,6.80
2005,09,26,04,45,6.80
2005,09,26,04,46,6.80
2005,09,26,04,47,6.80
2005,09,26,04,48,6.80
2005,09,26,04,49,6.80
2005,09,26,04,50,6.80
2005,09,26,04,51,6.80
2005,09,26,04,52,6.80
2005,09,26,04,53,6.80
2005,09,26,04,54,6.90
2005,09,26,04,55,6.90
2005,09,26,04,56,6.90
2005,09,26,04,57,6.90
2005,09,26,04,58,6.90
2005,09,26,04,59,6.90
2005,09,26,05,00,6.90
2005,09,26,05,01,6.90
2005,09,26,05,02,6.90
2005,09,26,05,03,6.90
2005,09,26,05,04,6.90
2005,09,26,05,05,6.90
2005,09,26,05,06,7.00
2005,09,26,05,07,7.00
2005,09,26,05,08,7.00
2005,09,26,05,09,7.00
2005,09,26,05,10,7.00
2005,09,26,05,11,6.90
2005,09,26,05,12,6.90
2005,09,26,05,13,6.90
2005,09,26,05,14,6.90
2005,09,26,05,15,6.90
2005,09,26,05,16,6.90
2005,09,26,05,17,7.00
2005,09,26,05,18,7.00
2005,09,26,05,19,7.00
2005,09,26,05,20,7.00
2005,09,26,05,21,7.10
2005,09,26,05,22,7.10
2005,09,26,05,23,7.10
2005,09,26,05,24,7.10
2005,09,26,05,25,7.10
2005,09,26,05,26,7.10
2005,09,26,05,27,7.10
2005,09,26,05,28,7.00
2005,09,26,05,29,7.00
2005,09,26,05,30,7.00
2005,09,26,05,31,7.00
2005,09,26,05,32,7.00
2005,09,26,05,33,7.00
2005,09,26,05,34,7.00
2005,09,26,05,35,7.00
2005,09,26,05,36,7.10
2005,09,26,05,37,7.10
2005,09,26,05,38,7.10
2005,09,26,05,39,7.10
2005,09,26,05,40,7.10
2005,09,26,05,41,7.10
2005,09,26,05,42,7.10
2005,09,26,05,43,7.10
2005,09,26,05,44,7.00
2005,09,26,05,45,7.00
2005,09,26,05,46,7.00
2005,09,26,05,47,6.90
2005,09,26,05,48,6.90
2005,09,26,05,49,6.90
2005,09,26,05,50,6.90
2005,09,26,05,51,6.90
2005,09,26,05,52,6.90
2005,09,26,05,53,6.90
2005,09,26,05,54,6.90
2005,09,26,05,55,6.90
2005,09,26,05,56,6.90
2005,09,26,05,57,6.90
2005,09,26,05,58,6.90
2005,09,26,05,59,6.90
2005,09,26,06,00,6.90
2005,09,26,06,01,6.90
2005,09,26,06,02,6.90
2005,09,26,06,03,7.00
2005,09,26,06,04,7.00
2005,09,26,06,05,7.00
2005,09,26,06,06,7.00
2005,09,26,06,07,7.00
2005,09,26,06,08,7.00
2005,09,26,06,09,7.00
2005,09,26,06,10,7.00
2005,09,26,06,11,7.00
2005,09,26,06,12,7.00
2005,09,26,06,13,6.90
2005,09,26,06,14,6.90
2005,09,26,06,15,6.90
2005,09,26,06,16,6.90
2005,09,26,06,17,6.90
2005,09,26,06,18,6.90
2005,09,26,06,19,6.90
2005,09,26,06,20,6.90
2005,09,26,06,21,6.90
2005,09,26,06,22,6.90
2005,09,26,06,23,6.90
2005,09,26,06,24,6.90
2005,09,26,06,25,6.90
2005,09,26,06,26,6.90
2005,09,26,06,27,6.90
2005,09,26,06,28,6.90
2005,09,26,06,29,6.90
2005,09,26,06,30,6.90
2005,09,26,06,31,6.90
2005,09,26,06,32,6.90
2005,09,26,06,33,6.90
2005,09,26,06,34,6.90
2005,09,26,06,35,6.80
2005,09,26,06,36,6.80
2005,09,26,06,37,6.80
2005,09,26,06,38,6.90
2005,09,26,06,39,6.90
2005,09,26,06,40,6.90
2005,09,26,06,41,6.90
2005,09,26,06,42,6.90
2005,09,26,06,43,6.80
2005,09,26,06,44,6.80
2005,09,26,06,45,6.80
2005,09,26,06,46,6.80
2005,09,26,06,47,6.80
2005,09,26,06,48,6.70
2005,09,26,06,49,6.70
2005,09,26,06,50,6.70
2005,09,26,06,51,6.70
2005,09,26,06,52,6.60
2005,09,26,06,53,6.60
2005,09,26,06,54,6.60
2005,09,26,06,55,6.60
2005,09,26,06,56,6.60
2005,09,26,06,57,6.60
2005,09,26,06,58,6.50
2005,09,26,06,59,6.40
2005,09,26,07,00,6.40
2005,09,26,07,01,6.40
2005,09,26,07,02,6.40
2005,09,26,07,03,6.40
2005,09,26,07,04,6.40
2005,09,26,07,05,6.40
2005,09,26,07,06,6.40
2005,09,26,07,07,6.50
2005,09,26,07,08,6.60
2005,09,26,07,09,6.60
2005,09,26,07,10,6.60
2005,09,26,07,11,6.60
2005,09,26,07,12,6.70
2005,09,26,07,13,6.70
2005,09,26,07,14,6.80
2005,09,26,07,15,6.80
2005,09,26,07,16,6.80
2005,09,26,07,17,6.90
2005,09,26,07,18,6.90
2005,09,26,07,19,7.00
2005,09,26,07,20,7.00
2005,09,26,07,21,7.00
2005,09,26,07,22,7.00
2005,09,26,07,23,7.00
2005,09,26,07,24,7.00
2005,09,26,07,25,7.00
2005,09,26,07,26,7.00
2005,09,26,07,27,7.10
2005,09,26,07,28,7.10
2005,09,26,07,29,7.10
2005,09,26,07,30,7.20
2005,09,26,07,31,7.30
2005,09,26,07,32,7.40
2005,09,26,07,33,7.50
2005,09,26,07,34,7.50
2005,09,26,07,35,7.60
2005,09,26,07,36,7.70
2005,09,26,07,37,7.70
2005,09,26,07,38,7.80
2005,09,26,07,39,7.80
2005,09,26,07,40,7.80
2005,09,26,07,41,7.80
2005,09,26,07,42,7.80
2005,09,26,07,43,7.80
2005,09,26,07,44,7.80
2005,09,26,07,45,7.80
2005,09,26,07,46,7.80
2005,09,26,07,47,7.80
2005,09,26,07,48,7.90
2005,09,26,07,49,7.90
2005,09,26,07,50,8.00
2005,09,26,07,51,8.20
2005,09,26,07,52,8.30
2005,09,26,07,53,8.40
2005,09,26,07,54,8.50
2005,09,26,07,55,8.70
2005,09,26,07,56,8.80
2005,09,26,07,57,8.90
2005,09,26,07,58,8.90
2005,09,26,07,59,9.00
2005,09,26,08,00,9.10
2005,09,26,08,01,9.20
2005,09,26,08,02,9.30
2005,09,26,08,03,9.40
2005,09,26,08,04,9.40
2005,09,26,08,05,9.60
2005,09,26,08,06,9.70
2005,09,26,08,07,9.70
2005,09,26,08,08,9.80
2005,09,26,08,09,9.90
2005,09,26,08,10,9.90
2005,09,26,08,11,9.90
2005,09,26,08,12,10.00
2005,09,26,08,13,10.10
2005,09,26,08,14,10.10
2005,09,26,08,15,10.20
2005,09,26,08,16,10.30
2005,09,26,08,17,10.40
2005,09,26,08,18,10.50
2005,09,26,08,19,10.60
2005,09,26,08,20,10.60
2005,09,26,08,21,10.60
2005,09,26,08,22,10.70
2005,09,26,08,23,10.70
2005,09,26,08,24,10.90
2005,09,26,08,25,11.00
2005,09,26,08,26,11.10
2005,09,26,08,27,11.10
2005,09,26,08,28,11.10
2005,09,26,08,29,11.20
2005,09,26,08,30,11.20
2005,09,26,08,31,11.20
2005,09,26,08,32,11.30
2005,09,26,08,33,11.30
2005,09,26,08,34,11.40
2005,09,26,08,35,11.40
2005,09,26,08,36,11.40
2005,09,26,08,37,11.40
2005,09,26,08,38,11.40
2005,09,26,08,39,11.40
2005,09,26,08,40,11.40
2005,09,26,08,41,11.40
2005,09,26,08,42,11.40
2005,09,26,08,43,11.50
2005,09,26,08,44,11.60
2005,09,26,08,45,11.60
2005,09,26,08,46,11.80
2005,09,26,08,47,11.80
2005,09,26,08,48,11.90
2005,09,26,08,49,12.00
2005,09,26,08,50,12.00
2005,09,26,08,51,12.00
2005,09,26,08,52,12.10
2005,09,26,08,53,12.10
2005,09,26,08,54,12.20
2005,09,26,08,55,12.30
2005,09,26,08,56,12.30
2005,09,26,08,57,12.30
2005,09,26,08,58,12.40
2005,09,26,08,59,12.40
2005,09,26,09,00,12.40
2005,09,26,09,01,12.50
2005,09,26,09,02,12.60
2005,09,26,09,03,12.70
2005,09,26,09,04,12.80
2005,09,26,09,05,12.90
2005,09,26,09,06,13.00
2005,09,26,09,07,13.10
2005,09,26,09,08,13.10
2005,09,26,09,09,13.20
2005,09,26,09,10,13.30
2005,09,26,09,11,13.30
2005,09,26,09,12,13.40
2005,09,26,09,13,13.40
2005,09,26,09,14,13.50
2005,09,26,09,15,13.50
2005,09,26,09,16,13.50
2005,09,26,09,17,13.60
2005,09,26,09,18,13.60
2005,09,26,09,19,13.60
2005,09,26,09,20,13.70
2005,09,26,09,21,13.70
2005,09,26,09,22,13.70
2005,09,26,09,23,13.70
2005,09,26,09,24,13.70
2005,09,26,09,25,13.80
2005,09,26,09,26,13.80
2005,09,26,09,27,13.90
2005,09,26,09,28,13.80
2005,09,26,09,29,13.80
2005,09,26,09,30,13.80
2005,09,26,09,31,13.80
2005,09,26,09,32,13.70
2005,09,26,09,33,13.70
2005,09,26,09,34,13.70
2005,09,26,09,35,13.70
2005,09,26,09,36,13.70
2005,09,26,09,37,13.70
2005,09,26,09,38,13.70
2005,09,26,09,39,13.70
2005,09,26,09,40,13.60
2005,09,26,09,41,13.60
2005,09,26,09,42,13.60
2005,09,26,09,43,13.60
2005,09,26,09,44,13.60
2005,09,26,09,45,13.60
2005,09,26,09,46,13.60
2005,09,26,09,47,13.60
2005,09,26,09,48,13.70
2005,09,26,09,49,13.70
2005,09,26,09,50,13.70
2005,09,26,09,51,13.70
2005,09,26,09,52,13.70
2005,09,26,09,53,13.80
2005,09,26,09,54,13.90
2005,09,26,09,55,14.00
2005,09,26,09,56,14.10
2005,09,26,09,57,14.10
2005,09,26,09,58,14.20
2005,09,26,09,59,14.30
2005,09,26,10,00,14.40
2005,09,26,10,01,14.50
2005,09,26,10,02,14.60
2005,09,26,10,03,14.80
2005,09,26,10,04,14.80
2005,09,26,10,05,14.80
2005,09,26,10,06,15.00
2005,09,26,10,07,15.10
2005,09,26,10,08,15.10
2005,09,26,10,09,15.20
2005,09,26,10,10,15.20
2005,09,26,10,11,15.30
2005,09,26,10,12,15.30
2005,09,26,10,13,15.40
2005,09,26,10,14,15.40
2005,09,26,10,15,15.40
2005,09,26,10,16,15.40
2005,09,26,10,17,15.40
2005,09,26,10,18,15.50
2005,09,26,10,19,15.50
2005,09,26,10,20,15.60
2005,09,26,10,21,15.60
2005,09,26,10,22,15.50
2005,09,26,10,23,15.50
2005,09,26,10,24,15.50
2005,09,26,10,25,15.40
2005,09,26,10,26,15.40
2005,09,26,10,27,15.40
2005,09,26,10,28,15.40
2005,09,26,10,29,15.40
2005,09,26,10,30,15.40
2005,09,26,10,31,15.50
2005,09,26,10,32,15.50
2005,09,26,10,33,15.50
2005,09,26,10,34,15.60
2005,09,26,10,35,15.70
2005,09,26,10,36,15.80
2005,09,26,10,37,15.90
2005,09,26,10,38,16.00
2005,09,26,10,39,16.10
2005,09,26,10,40,16.10
2005,09,26,10,41,16.10
2005,09,26,10,42,16.10
2005,09,26,10,43,16.10
2005,09,26,10,44,16.20
2005,09,26,10,45,16.20
2005,09,26,10,46,16.30
2005,09,26,10,47,16.30
2005,09,26,10,48,16.30
2005,09,26,10,49,16.30
2005,09,26,10,50,16.30
2005,09,26,10,51,16.30
2005,09,26,10,52,16.20
2005,09,26,10,53,16.20
2005,09,26,10,54,16.20
2005,09,26,10,55,16.30
2005,09,26,10,56,16.30
2005,09,26,10,57,16.30
2005,09,26,10,58,16.30
2005,09,26,10,59,16.30
2005,09,26,11,00,16.30
2005,09,26,11,01,16.40
2005,09,26,11,02,16.40
2005,09,26,11,03,16.40
2005,09,26,11,04,16.40
2005,09,26,11,05,16.40
2005,09,26,11,06,16.30
2005,09,26,11,07,16.30
2005,09,26,11,08,16.30
2005,09,26,11,09,16.30
2005,09,26,11,10,16.40
2005,09,26,11,11,16.40
2005,09,26,11,12,16.40
2005,09,26,11,13,16.30
2005,09,26,11,14,16.30
2005,09,26,11,15,16.30
2005,09,26,11,16,16.30
2005,09,26,11,17,16.30
2005,09,26,11,18,16.30
2005,09,26,11,19,16.30
2005,09,26,11,20,16.30
2005,09,26,11,21,16.30
2005,09,26,11,22,16.10
2005,09,26,11,23,15.90
2005,09,26,11,24,15.80
2005,09,26,11,25,15.70
2005,09,26,11,26,15.70
2005,09,26,11,27,15.80
2005,09,26,11,28,15.90
2005,09,26,11,29,15.90
2005,09,26,11,30,15.80
2005,09,26,11,31,15.80
2005,09,26,11,32,15.80
2005,09,26,11,33,15.80
2005,09,26,11,34,15.80
2005,09,26,11,35,15.80
2005,09,26,11,36,15.70
2005,09,26,11,37,15.60
2005,09,26,11,38,15.50
2005,09,26,11,39,15.40
2005,09,26,11,40,15.30
2005,09,26,11,41,15.30
2005,09,26,11,42,15.30
2005,09,26,11,43,15.20
2005,09,26,11,44,15.20
2005,09,26,11,45,15.30
2005,09,26,11,46,15.30
2005,09,26,11,47,15.30
2005,09,26,11,48,15.30
2005,09,26,11,49,15.30
2005,09,26,11,50,15.30
2005,09,26,11,51,15.30
2005,09,26,11,52,15.30
2005,09,26,11,53,15.30
2005,09,26,11,54,15.30
2005,09,26,11,55,15.30
2005,09,26,11,56,15.30
2005,09,26,11,57,15.30
2005,09,26,11,58,15.30
2005,09,26,11,59,15.20
2005,09,26,12,00,15.20
2005,09,26,12,01,15.20
2005,09,26,12,02,15.20
2005,09,26,12,03,15.30
2005,09,26,12,04,15.30
2005,09,26,12,05,15.30
2005,09,26,12,06,15.40
2005,09,26,12,07,15.50
2005,09,26,12,08,15.50
2005,09,26,12,09,15.60
2005,09,26,12,10,15.60
2005,09,26,12,11,15.60
2005,09,26,12,12,15.40
2005,09,26,12,13,15.50
2005,09,26,12,14,15.50
2005,09,26,12,15,15.50
2005,09,26,12,16,15.60
2005,09,26,12,17,15.60
2005,09,26,12,18,15.70
2005,09,26,12,19,15.80
2005,09,26,12,20,15.80
2005,09,26,12,21,15.90
2005,09,26,12,22,15.80
2005,09,26,12,23,15.90
2005,09,26,12,24,16.00
2005,09,26,12,25,16.10
2005,09,26,12,26,16.10
2005,09,26,12,27,16.20
2005,09,26,12,28,16.30
2005,09,26,12,29,16.40
2005,09,26,12,30,16.40
2005,09,26,12,31,16.40
2005,09,26,12,32,16.40
2005,09,26,12,33,16.50
2005,09,26,12,34,16.60
2005,09,26,12,35,16.70
2005,09,26,12,36,16.80
2005,09,26,12,37,16.90
2005,09,26,12,38,16.90
2005,09,26,12,39,17.00
2005,09,26,12,40,17.10
2005,09,26,12,41,17.20
2005,09,26,12,42,17.10
2005,09,26,12,43,17.10
2005,09,26,12,44,17.10
2005,09,26,12,45,17.20
2005,09,26,12,46,17.30
2005,09,26,12,47,17.30
2005,09,26,12,48,17.30
2005,09,26,12,49,17.30
2005,09,26,12,50,17.30
2005,09,26,12,51,17.40
2005,09,26,12,52,17.40
2005,09,26,12,53,17.40
2005,09,26,12,54,17.40
2005,09,26,12,55,17.50
2005,09,26,12,56,17.60
2005,09,26,12,57,17.70
2005,09,26,12,58,17.70
2005,09,26,12,59,17.80
2005,09,26,13,00,17.90
2005,09,26,13,01,18.00
2005,09,26,13,02,18.10
2005,09,26,13,03,18.10
2005,09,26,13,04,18.10
2005,09,26,13,05,18.00
2005,09,26,13,06,17.90
2005,09,26,13,07,17.90
2005,09,26,13,08,17.90
2005,09,26,13,09,18.00
2005,09,26,13,10,18.10
2005,09,26,13,11,18.10
2005,09,26,13,12,18.20
2005,09,26,13,13,18.30
2005,09,26,13,14,18.30
2005,09,26,13,15,18.30
2005,09,26,13,16,18.30
2005,09,26,13,17,18.20
2005,09,26,13,18,18.10
2005,09,26,13,19,18.10
2005,09,26,13,20,17.90
2005,09,26,13,21,17.90
2005,09,26,13,22,17.80
2005,09,26,13,23,17.70
2005,09,26,13,24,17.50
2005,09,26,13,25,17.30
2005,09,26,13,26,17.20
2005,09,26,13,27,16.90
2005,09,26,13,28,16.70
2005,09,26,13,29,16.50
2005,09,26,13,30,16.40
2005,09,26,13,31,16.20
2005,09,26,13,32,16.00
2005,09,26,13,33,15.80
2005,09,26,13,34,15.70
2005,09,26,13,35,15.70
2005,09,26,13,36,15.60
2005,09,26,13,37,15.70
2005,09,26,13,38,15.70
2005,09,26,13,39,15.70
2005,09,26,13,40,15.70
2005,09,26,13,41,15.70
2005,09,26,13,42,15.60
2005,09,26,13,43,15.50
2005,09,26,13,44,15.50
2005,09,26,13,45,15.50
2005,09,26,13,46,15.40
2005,09,26,13,47,15.40
2005,09,26,13,48,15.40
2005,09,26,13,49,15.40
2005,09,26,13,50,15.50
2005,09,26,13,51,15.50
2005,09,26,13,52,15.60
2005,09,26,13,53,15.70
2005,09,26,13,54,15.80
2005,09,26,13,55,15.80
2005,09,26,13,56,15.90
2005,09,26,13,57,16.00
2005,09,26,13,58,16.10
2005,09,26,13,59,16.10
2005,09,26,14,00,16.10
2005,09,26,14,01,16.10
2005,09,26,14,02,16.10
2005,09,26,14,03,16.10
2005,09,26,14,04,16.10
2005,09,26,14,05,16.20
2005,09,26,14,06,16.20
2005,09,26,14,07,16.20
2005,09,26,14,08,16.20
2005,09,26,14,09,16.20
2005,09,26,14,10,16.30
2005,09,26,14,11,16.30
2005,09,26,14,12,16.40
2005,09,26,14,13,16.40
2005,09,26,14,14,16.40
2005,09,26,14,15,16.40
2005,09,26,14,16,16.40
2005,09,26,14,17,16.40
2005,09,26,14,18,16.50
2005,09,26,14,19,16.60
2005,09,26,14,20,16.60
2005,09,26,14,21,16.70
2005,09,26,14,22,16.70
2005,09,26,14,23,16.80
2005,09,26,14,24,16.80
2005,09,26,14,25,16.80
2005,09,26,14,26,16.80
2005,09,26,14,27,16.90
2005,09,26,14,28,16.90
2005,09,26,14,29,16.90
2005,09,26,14,30,17.00
2005,09,26,14,31,17.00
2005,09,26,14,32,17.00
2005,09,26,14,33,17.10
2005,09,26,14,34,17.10
2005,09,26,14,35,17.10
2005,09,26,14,36,17.20
2005,09,26,14,37,17.20
2005,09,26,14,38,17.20
2005,09,26,14,39,17.20
2005,09,26,14,40,17.00
2005,09,26,14,41,17.00
2005,09,26,14,42,16.80
2005,09,26,14,43,16.70
2005,09,26,14,44,16.70
2005,09,26,14,45,16.60
2005,09,26,14,46,16.50
2005,09,26,14,47,16.40
2005,09,26,14,48,16.40
2005,09,26,14,49,16.40
2005,09,26,14,50,16.40
2005,09,26,14,51,16.40
2005,09,26,14,52,16.40
2005,09,26,14,53,16.40
2005,09,26,14,54,16.40
2005,09,26,14,55,16.40
2005,09,26,14,56,16.40
2005,09,26,14,57,16.40
2005,09,26,14,58,16.40
2005,09,26,14,59,16.40
2005,09,26,15,00,16.40
2005,09,26,15,01,16.40
2005,09,26,15,02,16.40
2005,09,26,15,03,16.40
2005,09,26,15,04,16.30
2005,09,26,15,05,16.40
2005,09,26,15,06,16.30
2005,09,26,15,07,16.30
2005,09,26,15,08,16.30
2005,09,26,15,09,16.30
2005,09,26,15,10,16.30
2005,09,26,15,11,16.30
2005,09,26,15,12,16.30
2005,09,26,15,13,16.30
2005,09,26,15,14,16.40
2005,09,26,15,15,16.40
2005,09,26,15,16,16.40
2005,09,26,15,17,16.40
2005,09,26,15,18,16.50
2005,09,26,15,19,16.60
2005,09,26,15,20,16.60
2005,09,26,15,21,16.70
2005,09,26,15,22,16.70
2005,09,26,15,23,16.70
2005,09,26,15,24,16.60
2005,09,26,15,25,16.60
2005,09,26,15,26,16.60
2005,09,26,15,27,16.60
2005,09,26,15,28,16.60
2005,09,26,15,29,16.70
2005,09,26,15,30,16.70
2005,09,26,15,31,16.70
2005,09,26,15,32,16.70
2005,09,26,15,33,16.70
2005,09,26,15,34,16.70
2005,09,26,15,35,16.70
2005,09,26,15,36,16.70
2005,09,26,15,37,16.70
2005,09,26,15,38,16.70
2005,09,26,15,39,16.70
2005,09,26,15,40,16.80
2005,09,26,15,41,16.90
2005,09,26,15,42,16.90
2005,09,26,15,43,16.90
2005,09,26,15,44,16.90
2005,09,26,15,45,16.90
2005,09,26,15,46,16.90
2005,09,26,15,47,16.90
2005,09,26,15,48,17.00
2005,09,26,15,49,17.00
2005,09,26,15,50,17.00
2005,09,26,15,51,17.00
2005,09,26,15,52,17.00
2005,09,26,15,53,17.10
2005,09,26,15,54,17.10
2005,09,26,15,55,17.20
2005,09,26,15,56,17.20
2005,09,26,15,57,17.30
2005,09,26,15,58,17.30
2005,09,26,15,59,17.30
2005,09,26,16,00,17.30
2005,09,26,16,01,17.40
2005,09,26,16,02,17.40
2005,09,26,16,03,17.50
2005,09,26,16,04,17.50
2005,09,26,16,05,17.60
2005,09,26,16,06,17.70
2005,09,26,16,07,17.70
2005,09,26,16,08,17.70
2005,09,26,16,09,17.80
2005,09,26,16,10,17.80
2005,09,26,16,11,17.70
2005,09,26,16,12,17.80
2005,09,26,16,13,17.80
2005,09,26,16,14,17.70
2005,09,26,16,15,17.60
2005,09,26,16,16,17.60
2005,09,26,16,17,17.60
2005,09,26,16,18,17.60
2005,09,26,16,19,17.60
2005,09,26,16,20,17.60
2005,09,26,16,21,17.50
2005,09,26,16,22,17.40
2005,09,26,16,23,17.30
2005,09,26,16,24,17.30
2005,09,26,16,25,17.20
2005,09,26,16,26,17.20
2005,09,26,16,27,17.10
2005,09,26,16,28,17.10
2005,09,26,16,29,17.10
2005,09,26,16,30,17.10
2005,09,26,16,31,17.00
2005,09,26,16,32,17.00
2005,09,26,16,33,17.00
2005,09,26,16,34,16.90
2005,09,26,16,35,16.90
2005,09,26,16,36,16.90
2005,09,26,16,37,17.00
2005,09,26,16,38,17.00
2005,09,26,16,39,17.00
2005,09,26,16,40,17.00
2005,09,26,16,41,17.00
2005,09,26,16,42,17.00
2005,09,26,16,43,17.00
2005,09,26,16,44,17.00
2005,09,26,16,45,17.00
2005,09,26,16,46,17.00
2005,09,26,16,47,17.00
2005,09,26,16,48,17.00
2005,09,26,16,49,17.00
2005,09,26,16,50,17.00
2005,09,26,16,51,17.00
2005,09,26,16,52,16.90
2005,09,26,16,53,16.90
2005,09,26,16,54,16.90
2005,09,26,16,55,16.90
2005,09,26,16,56,16.80
2005,09,26,16,57,16.80
2005,09,26,16,58,16.80
2005,09,26,16,59,16.80
2005,09,26,17,00,16.80
2005,09,26,17,01,16.80
2005,09,26,17,02,16.80
2005,09,26,17,03,16.80
2005,09,26,17,04,16.80
2005,09,26,17,05,16.80
2005,09,26,17,06,16.70
2005,09,26,17,07,16.70
2005,09,26,17,08,16.70
2005,09,26,17,09,16.70
2005,09,26,17,10,16.70
2005,09,26,17,11,16.70
2005,09,26,17,12,16.70
2005,09,26,17,13,16.70
2005,09,26,17,14,16.70
2005,09,26,17,15,16.70
2005,09,26,17,16,16.70
2005,09,26,17,17,16.70
2005,09,26,17,18,16.70
2005,09,26,17,19,16.70
2005,09,26,17,20,16.70
2005,09,26,17,21,16.70
2005,09,26,17,22,16.70
2005,09,26,17,23,16.70
2005,09,26,17,24,16.70
2005,09,26,17,25,16.70
2005,09,26,17,26,16.70
2005,09,26,17,27,16.70
2005,09,26,17,28,16.70
2005,09,26,17,29,16.70
2005,09,26,17,30,16.70
2005,09,26,17,31,16.70
2005,09,26,17,32,16.70
2005,09,26,17,33,16.70
2005,09,26,17,34,16.70
2005,09,26,17,35,16.70
2005,09,26,17,36,16.80
2005,09,26,17,37,16.80
2005,09,26,17,38,16.90
2005,09,26,17,39,16.90
2005,09,26,17,40,16.90